Location: Newark
(39.6889°N, 28.1522°E)
Time: 17:36:56
(UTC+00:00)

KAITUO 1B - Visible Passes

Search period start: 07 December 2019 00:00
Search period end: 17 December 2019 00:00
Orbit: 497 x 515 km, 97.5° (Epoch: 07 December)

Date Brightness Start Highest point End Pass type
(mag) Time Alt. Az. Time Alt. Az. Time Alt. Az.
07 Dec ? 03:58:36 10° NNE 04:02:02 32° E 04:05:26 10° SSE visible
07 Dec ? 16:10:05 10° SSW 16:13:32 37° W 16:17:01 10° NNW visible
08 Dec ? 03:41:20 10° NE 03:44:10 20° E 03:46:57 10° SE visible
08 Dec ? 15:52:02 10° S 15:55:42 65° W 15:59:26 10° NNW visible
09 Dec ? 03:24:41 10° ENE 03:26:14 12° E 03:27:46 10° ESE visible
09 Dec ? 15:34:14 10° SSE 15:37:55 72° ENE 15:41:40 10° N visible
10 Dec ? 04:38:47 10° N 04:42:33 71° WNW 04:46:17 10° SSW visible
10 Dec ? 15:16:41 10° SE 15:20:11 41° ENE 15:23:44 10° N visible
10 Dec ? 16:52:47 10° WSW 16:54:15 12° W 16:55:43 10° WNW visible
11 Dec ? 04:21:01 10° NNE 04:24:46 66° E 04:28:29 10° S visible
11 Dec ? 16:33:34 10° SW 16:36:19 20° W 16:39:06 10° NW visible
12 Dec ? 04:03:25 10° NNE 04:06:56 37° E 04:10:26 10° SSE visible
12 Dec ? 16:15:04 10° SSW 16:18:26 32° W 16:21:50 10° NNW visible
13 Dec ? 03:46:03 10° NE 03:49:04 23° E 03:52:03 10° SSE visible
13 Dec ? 15:56:56 10° S 16:00:35 56° W 16:04:17 10° NNW visible
14 Dec ? 03:29:09 10° ENE 03:31:08 14° E 03:33:08 10° SE visible
14 Dec ? 15:39:03 10° SSE 15:42:47 83° ENE 15:46:33 10° N visible
15 Dec ? 04:43:41 10° N 04:47:24 61° WNW 04:51:05 10° SSW visible
15 Dec ? 15:21:26 10° SSE 15:25:02 47° ENE 15:28:39 10° N visible
15 Dec ? 16:58:30 10° W 16:59:09 10° W 16:59:48 10° W visible
16 Dec ? 04:25:52 10° NNE 04:29:38 77° ESE 04:33:21 10° S visible
16 Dec ? 16:38:40 10° SW 16:41:12 17° W 16:43:45 10° NW visible
